Time,TemperatureF,DewpointF,PressureIn,WindDirection,WindDirectionDegrees,WindSpeedMPH,WindSpeedGustMPH,Humidity,HourlyPrecipIn,Conditions,Clouds,dailyrainin,SoftwareType,DateUTC
2013-01-21 00:03:00,32.0,3.0,30.15,WNW,286,5.0,19.0,28,0.00,,,0.00,,2013-01-21 07:03:00,
2013-01-21 00:13:00,32.0,3.0,30.15,WNW,286,5.0,19.0,28,0.00,,,0.00,,2013-01-21 07:13:00,
2013-01-21 00:22:00,32.0,3.0,30.14,West,277,5.0,40.0,28,0.00,,,0.00,,2013-01-21 07:22:00,
2013-01-21 00:33:00,32.0,2.0,30.14,WNW,302,7.0,21.0,27,0.00,,,0.00,,2013-01-21 07:33:00,
2013-01-21 00:42:00,32.0,2.0,30.14,WNW,302,7.0,21.0,27,0.00,,,0.00,,2013-01-21 07:42:00,
2013-01-21 00:53:00,32.0,2.0,30.14,WNW,302,13.0,21.0,27,0.00,,,0.00,,2013-01-21 07:53:00,
2013-01-21 01:03:00,32.0,1.0,30.13,NW,315,15.0,36.0,26,0.00,,,0.00,,2013-01-21 08:03:00,
2013-01-21 01:23:00,32.0,2.0,30.14,NW,314,11.0,29.0,27,0.00,,,0.00,,2013-01-21 08:23:00,
2013-01-21 01:32:00,32.0,2.0,30.14,NW,309,15.0,33.0,27,0.00,,,0.00,,2013-01-21 08:32:00,
2013-01-21 01:42:00,32.0,2.0,30.14,NW,309,15.0,33.0,27,0.00,,,0.00,,2013-01-21 08:42:00,
2013-01-21 01:53:00,31.0,1.0,30.14,WNW,287,15.0,29.0,27,0.00,,,0.00,,2013-01-21 08:53:00,
2013-01-21 02:02:00,31.0,1.0,30.14,West,260,13.0,32.0,27,0.00,,,0.00,,2013-01-21 09:02:00,
2013-01-21 02:12:00,31.0,1.0,30.14,West,260,13.0,32.0,27,0.00,,,0.00,,2013-01-21 09:12:00,
2013-01-21 02:23:00,31.0,1.0,30.14,West,260,13.0,32.0,27,0.00,,,0.00,,2013-01-21 09:23:00,
2013-01-21 02:33:00,31.0,1.0,30.14,NW,304,9.0,26.0,27,0.00,,,0.00,,2013-01-21 09:33:00,
2013-01-21 02:42:00,31.0,1.0,30.14,NW,304,9.0,26.0,27,0.00,,,0.00,,2013-01-21 09:42:00,
2013-01-21 02:53:00,31.0,1.0,30.15,WNW,290,13.0,22.0,27,0.00,,,0.00,,2013-01-21 09:53:00,
2013-01-21 03:02:00,31.0,1.0,30.15,West,259,6.0,17.0,27,0.00,,,0.00,,2013-01-21 10:02:00,
2013-01-21 03:12:00,31.0,1.0,30.15,West,259,6.0,17.0,27,0.00,,,0.00,,2013-01-21 10:12:00,
2013-01-21 03:22:00,31.0,1.0,30.15,NW,307,2.0,16.0,27,0.00,,,0.00,,2013-01-21 10:22:00,
2013-01-21 03:32:00,30.0,1.0,30.15,NE,39,1.0,8.0,28,0.00,,,0.00,,2013-01-21 10:32:00,
2013-01-21 03:43:00,30.0,1.0,30.15,NE,39,1.0,8.0,28,0.00,,,0.00,,2013-01-21 10:43:00,
2013-01-21 03:53:00,30.0,2.0,30.14,SSE,149,2.0,8.0,29,0.00,,,0.00,,2013-01-21 10:53:00,
2013-01-21 04:02:00,30.0,2.0,30.14,WNW,288,2.0,7.0,29,0.00,,,0.00,,2013-01-21 11:02:00,
2013-01-21 04:13:00,30.0,2.0,30.14,WNW,288,2.0,7.0,29,0.00,,,0.00,,2013-01-21 11:13:00,
2013-01-21 04:23:00,30.0,2.0,30.14,WNW,300,6.0,15.0,30,0.00,,,0.00,,2013-01-21 11:23:00,
2013-01-21 04:33:00,31.0,3.0,30.14,WSW,250,8.0,16.0,30,0.00,,,0.00,,2013-01-21 11:33:00,
2013-01-21 04:42:00,31.0,3.0,30.14,WSW,250,8.0,16.0,30,0.00,,,0.00,,2013-01-21 11:42:00,
2013-01-21 04:53:00,31.0,3.0,30.14,West,278,7.0,15.0,29,0.00,,,0.00,,2013-01-21 11:53:00,
2013-01-21 05:02:00,33.0,3.0,30.15,WNW,297,11.0,22.0,27,0.00,,,0.00,,2013-01-21 12:02:00,
2013-01-21 05:12:00,33.0,3.0,30.15,WNW,297,11.0,22.0,27,0.00,,,0.00,,2013-01-21 12:12:00,
2013-01-21 05:22:00,32.0,2.0,30.15,WNW,285,11.0,21.0,27,0.00,,,0.00,,2013-01-21 12:22:00,
2013-01-21 05:32:00,31.0,2.0,30.16,SW,228,10.0,18.0,28,0.00,,,0.00,,2013-01-21 12:32:00,
2013-01-21 05:42:00,31.0,2.0,30.16,SW,228,10.0,18.0,28,0.00,,,0.00,,2013-01-21 12:42:00,
2013-01-21 05:53:00,30.0,2.0,30.16,NW,326,9.0,21.0,29,0.00,,,0.00,,2013-01-21 12:53:00,
2013-01-21 06:02:00,30.0,2.0,30.17,WNW,302,5.0,17.0,30,0.00,,,0.00,,2013-01-21 13:02:00,
2013-01-21 06:13:00,30.0,2.0,30.17,WNW,302,5.0,17.0,30,0.00,,,0.00,,2013-01-21 13:13:00,
2013-01-21 06:23:00,30.0,2.0,30.16,WNW,283,5.0,16.0,30,0.00,,,0.00,,2013-01-21 13:23:00,
2013-01-21 06:33:00,30.0,2.0,30.16,WNW,290,12.0,28.0,30,0.00,,,0.00,,2013-01-21 13:33:00,
2013-01-21 06:43:00,30.0,2.0,30.16,WNW,290,12.0,28.0,30,0.00,,,0.00,,2013-01-21 13:43:00,
2013-01-21 06:54:00,30.0,2.0,30.16,WNW,290,12.0,28.0,30,0.00,,,0.00,,2013-01-21 13:54:00,
2013-01-21 07:03:00,31.0,4.0,30.15,WNW,293,15.0,26.0,31,0.00,,,0.00,,2013-01-21 14:03:00,
2013-01-21 07:12:00,31.0,4.0,30.15,WNW,293,15.0,26.0,31,0.00,,,0.00,,2013-01-21 14:12:00,
2013-01-21 07:23:00,31.0,3.0,30.15,WSW,249,8.0,18.0,30,0.00,,,0.00,,2013-01-21 14:23:00,
2013-01-21 07:32:00,31.0,4.0,30.15,NW,322,8.0,23.0,31,0.00,,,0.00,,2013-01-21 14:32:00,
2013-01-21 07:43:00,31.0,4.0,30.15,NW,322,8.0,23.0,31,0.00,,,0.00,,2013-01-21 14:43:00,
2013-01-21 07:53:00,31.0,5.0,30.15,West,277,13.0,24.0,32,0.00,,,0.00,,2013-01-21 14:53:00,
2013-01-21 08:03:00,32.0,4.0,30.14,WNW,300,18.0,31.0,30,0.00,,,0.00,,2013-01-21 15:03:00,
2013-01-21 08:13:00,32.0,4.0,30.14,WNW,300,18.0,31.0,30,0.00,,,0.00,,2013-01-21 15:13:00,
2013-01-21 08:23:00,32.0,4.0,30.15,WNW,300,12.0,23.0,30,0.00,,,0.00,,2013-01-21 15:23:00,
2013-01-21 08:33:00,33.0,4.0,30.14,West,276,9.0,25.0,29,0.00,,,0.00,,2013-01-21 15:33:00,
2013-01-21 08:43:00,33.0,4.0,30.14,West,276,9.0,25.0,29,0.00,,,0.00,,2013-01-21 15:43:00,
2013-01-21 08:53:00,34.0,5.0,30.13,WNW,286,13.0,23.0,29,0.00,,,0.00,,2013-01-21 15:53:00,
2013-01-21 09:03:00,34.0,5.0,30.13,West,280,11.0,29.0,29,0.00,,,0.00,,2013-01-21 16:03:00,
2013-01-21 09:12:00,34.0,5.0,30.13,West,280,11.0,29.0,29,0.00,,,0.00,,2013-01-21 16:12:00,
2013-01-21 09:23:00,35.0,6.0,30.14,West,260,15.0,35.0,29,0.00,,,0.00,,2013-01-21 16:23:00,
2013-01-21 09:33:00,35.0,5.0,30.13,WNW,293,15.0,39.0,28,0.00,,,0.00,,2013-01-21 16:33:00,
2013-01-21 09:43:00,35.0,5.0,30.13,WNW,293,15.0,39.0,28,0.00,,,0.00,,2013-01-21 16:43:00,
2013-01-21 09:53:00,35.0,5.0,30.13,WNW,293,15.0,39.0,28,0.00,,,0.00,,2013-01-21 16:53:00,
2013-01-21 10:02:00,36.0,5.0,30.14,WNW,296,15.0,33.0,27,0.00,,,0.00,,2013-01-21 17:02:00,
2013-01-21 10:12:00,36.0,5.0,30.14,WNW,296,15.0,33.0,27,0.00,,,0.00,,2013-01-21 17:12:00,
2013-01-21 10:23:00,37.0,7.0,30.15,NNW,333,16.0,29.0,28,0.00,,,0.00,,2013-01-21 17:23:00,
2013-01-21 10:33:00,36.0,6.0,30.16,WNW,285,14.0,36.0,28,0.00,,,0.00,,2013-01-21 17:33:00,
2013-01-21 10:43:00,36.0,6.0,30.16,WNW,285,14.0,36.0,28,0.00,,,0.00,,2013-01-21 17:43:00,
2013-01-21 10:53:00,36.0,7.0,30.17,WNW,283,10.0,32.0,29,0.00,,,0.00,,2013-01-21 17:53:00,
2013-01-21 11:03:00,37.0,8.0,30.16,NW,314,9.0,26.0,29,0.00,,,0.00,,2013-01-21 18:03:00,
2013-01-21 11:12:00,37.0,8.0,30.16,NW,314,9.0,26.0,29,0.00,,,0.00,,2013-01-21 18:12:00,
2013-01-21 11:22:00,36.0,8.0,30.15,WNW,290,17.0,35.0,30,0.00,,,0.00,,2013-01-21 18:22:00,
2013-01-21 11:33:00,37.0,8.0,30.14,North,357,13.0,28.0,29,0.00,,,0.00,,2013-01-21 18:33:00,
2013-01-21 11:42:00,37.0,8.0,30.14,North,357,13.0,28.0,29,0.00,,,0.00,,2013-01-21 18:42:00,
2013-01-21 11:53:00,38.0,8.0,30.13,WNW,290,16.0,40.0,28,0.00,,,0.00,,2013-01-21 18:53:00,
2013-01-21 12:03:00,38.0,8.0,30.11,WNW,283,22.0,39.0,28,0.00,,,0.00,,2013-01-21 19:03:00,
2013-01-21 12:12:00,38.0,8.0,30.11,WNW,283,22.0,39.0,28,0.00,,,0.00,,2013-01-21 19:12:00,
2013-01-21 12:22:00,38.0,7.0,30.10,NW,305,12.0,37.0,27,0.00,,,0.00,,2013-01-21 19:22:00,
2013-01-21 12:33:00,38.0,7.0,30.12,WNW,297,19.0,48.0,27,0.00,,,0.00,,2013-01-21 19:33:00,
2013-01-21 12:43:00,38.0,7.0,30.12,WNW,297,19.0,48.0,27,0.00,,,0.00,,2013-01-21 19:43:00,
2013-01-21 12:53:00,38.0,7.0,30.11,NW,310,16.0,40.0,27,0.00,,,0.00,,2013-01-21 19:53:00,
2013-01-21 13:03:00,39.0,6.0,30.11,WNW,293,22.0,37.0,25,0.00,,,0.00,,2013-01-21 20:03:00,
2013-01-21 13:12:00,39.0,6.0,30.11,WNW,293,22.0,37.0,25,0.00,,,0.00,,2013-01-21 20:12:00,
2013-01-21 13:23:00,39.0,5.0,30.11,WNW,294,23.0,45.0,24,0.00,,,0.00,,2013-01-21 20:23:00,
2013-01-21 13:33:00,39.0,5.0,30.11,WNW,302,28.0,54.0,24,0.00,,,0.00,,2013-01-21 20:33:00,
2013-01-21 13:43:00,39.0,5.0,30.11,WNW,302,28.0,54.0,24,0.00,,,0.00,,2013-01-21 20:43:00,
2013-01-21 13:53:00,39.0,4.0,30.11,WNW,283,16.0,34.0,23,0.00,,,0.00,,2013-01-21 20:53:00,
2013-01-21 14:03:00,39.0,4.0,30.12,WNW,285,20.0,30.0,23,0.00,,,0.00,,2013-01-21 21:03:00,
2013-01-21 14:12:00,39.0,4.0,30.12,WNW,285,20.0,30.0,23,0.00,,,0.00,,2013-01-21 21:12:00,
2013-01-21 14:23:00,39.0,4.0,30.11,West,266,16.0,34.0,23,0.00,,,0.00,,2013-01-21 21:23:00,
2013-01-21 14:33:00,39.0,4.0,30.11,West,267,17.0,30.0,23,0.00,,,0.00,,2013-01-21 21:33:00,
2013-01-21 14:43:00,39.0,4.0,30.11,West,267,17.0,30.0,23,0.00,,,0.00,,2013-01-21 21:43:00,
2013-01-21 14:53:00,40.0,4.0,30.11,NW,307,17.0,30.0,22,0.00,,,0.00,,2013-01-21 21:53:00,
2013-01-21 15:03:00,40.0,4.0,30.11,WNW,285,15.0,31.0,22,0.00,,,0.00,,2013-01-21 22:03:00,
2013-01-21 15:12:00,40.0,4.0,30.11,WNW,285,15.0,31.0,22,0.00,,,0.00,,2013-01-21 22:12:00,
2013-01-21 15:23:00,40.0,4.0,30.11,West,273,21.0,32.0,22,0.00,,,0.00,,2013-01-21 22:23:00,
2013-01-21 15:33:00,38.0,3.0,30.12,WNW,288,7.0,28.0,22,0.00,,,0.00,,2013-01-21 22:33:00,
2013-01-21 15:43:00,38.0,3.0,30.12,WNW,288,7.0,28.0,22,0.00,,,0.00,,2013-01-21 22:43:00,
2013-01-21 15:53:00,39.0,3.0,30.12,WNW,289,11.0,23.0,22,0.00,,,0.00,,2013-01-21 22:53:00,
2013-01-21 16:03:00,39.0,1.0,30.12,WNW,283,19.0,33.0,20,0.00,,,0.00,,2013-01-21 23:03:00,
2013-01-21 16:12:00,39.0,1.0,30.12,WNW,283,19.0,33.0,20,0.00,,,0.00,,2013-01-21 23:12:00,
2013-01-21 16:23:00,39.0,0.0,30.12,SW,228,11.0,32.0,19,0.00,,,0.00,,2013-01-21 23:23:00,
2013-01-21 16:33:00,39.0,-2.0,30.11,NW,314,10.0,30.0,17,0.00,,,0.00,,2013-01-21 23:33:00,
2013-01-21 16:42:00,39.0,-2.0,30.11,NW,314,10.0,30.0,17,0.00,,,0.00,,2013-01-21 23:42:00,
2013-01-21 16:53:00,39.0,-2.0,30.11,NNE,19,12.0,25.0,17,0.00,,,0.00,,2013-01-21 23:53:00,
2013-01-21 17:02:00,38.0,-3.0,30.12,WNW,290,10.0,21.0,17,0.00,,,0.00,,2013-01-22 00:02:00,
2013-01-21 17:12:00,38.0,-3.0,30.12,WNW,290,10.0,21.0,17,0.00,,,0.00,,2013-01-22 00:12:00,
2013-01-21 17:22:00,38.0,-3.0,30.11,WNW,283,6.0,20.0,17,0.00,,,0.00,,2013-01-22 00:22:00,
2013-01-21 17:32:00,38.0,-3.0,30.10,West,279,12.0,37.0,17,0.00,,,0.00,,2013-01-22 00:32:00,
2013-01-21 17:43:00,38.0,-3.0,30.10,West,279,12.0,37.0,17,0.00,,,0.00,,2013-01-22 00:43:00,
2013-01-21 17:53:00,38.0,-4.0,30.09,West,274,18.0,38.0,16,0.00,,,0.00,,2013-01-22 00:53:00,
2013-01-21 18:02:00,38.0,-4.0,30.09,WNW,284,24.0,42.0,16,0.00,,,0.00,,2013-01-22 01:02:00,
2013-01-21 18:12:00,38.0,-4.0,30.09,WNW,284,24.0,42.0,16,0.00,,,0.00,,2013-01-22 01:12:00,
2013-01-21 18:23:00,37.0,-3.0,30.08,West,277,20.0,38.0,18,0.00,,,0.00,,2013-01-22 01:23:00,
2013-01-21 18:32:00,37.0,-4.0,30.08,WNW,297,22.0,43.0,17,0.00,,,0.00,,2013-01-22 01:32:00,
2013-01-21 18:42:00,37.0,-4.0,30.08,WNW,297,22.0,43.0,17,0.00,,,0.00,,2013-01-22 01:42:00,
2013-01-21 18:52:00,37.0,-3.0,30.08,WNW,287,27.0,47.0,18,0.00,,,0.00,,2013-01-22 01:52:00,
2013-01-21 19:02:00,37.0,-4.0,30.09,WNW,297,23.0,47.0,17,0.00,,,0.00,,2013-01-22 02:02:00,
2013-01-21 19:12:00,37.0,-4.0,30.09,WNW,297,23.0,47.0,17,0.00,,,0.00,,2013-01-22 02:12:00,
2013-01-21 19:22:00,37.0,-3.0,30.09,NW,309,18.0,45.0,18,0.00,,,0.00,,2013-01-22 02:22:00,
2013-01-21 19:32:00,37.0,-5.0,30.09,WNW,300,23.0,49.0,16,0.00,,,0.00,,2013-01-22 02:32:00,
2013-01-21 19:43:00,37.0,-5.0,30.09,WNW,300,23.0,49.0,16,0.00,,,0.00,,2013-01-22 02:43:00,
2013-01-21 19:53:00,38.0,-5.0,30.10,West,278,21.0,40.0,15,0.00,,,0.00,,2013-01-22 02:53:00,
2013-01-21 20:02:00,38.0,-5.0,30.09,West,267,25.0,48.0,15,0.00,,,0.00,,2013-01-22 03:02:00,
2013-01-21 20:12:00,38.0,-5.0,30.09,West,267,25.0,48.0,15,0.00,,,0.00,,2013-01-22 03:12:00,
2013-01-21 20:22:00,38.0,-5.0,30.09,WNW,299,27.0,45.0,15,0.00,,,0.00,,2013-01-22 03:22:00,
2013-01-21 20:32:00,37.0,-5.0,30.09,WNW,288,24.0,44.0,16,0.00,,,0.00,,2013-01-22 03:32:00,
2013-01-21 20:42:00,37.0,-5.0,30.09,WNW,288,24.0,44.0,16,0.00,,,0.00,,2013-01-22 03:42:00,
2013-01-21 20:53:00,37.0,-5.0,30.09,West,267,23.0,48.0,16,0.00,,,0.00,,2013-01-22 03:53:00,
2013-01-21 21:02:00,38.0,-5.0,30.09,WNW,290,28.0,53.0,15,0.00,,,0.00,,2013-01-22 04:02:00,
2013-01-21 21:12:00,38.0,-5.0,30.09,WNW,290,28.0,53.0,15,0.00,,,0.00,,2013-01-22 04:12:00,
2013-01-21 21:22:00,38.0,-5.0,30.09,WNW,290,28.0,53.0,15,0.00,,,0.00,,2013-01-22 04:22:00,
2013-01-21 21:32:00,38.0,-5.0,30.09,NNW,330,30.0,46.0,15,0.00,,,0.00,,2013-01-22 04:32:00,
2013-01-21 21:42:00,38.0,-5.0,30.09,NNW,330,30.0,46.0,15,0.00,,,0.00,,2013-01-22 04:42:00,
2013-01-21 21:52:00,37.0,-5.0,30.10,West,269,23.0,54.0,16,0.00,,,0.00,,2013-01-22 04:52:00,
2013-01-21 22:04:00,37.0,-5.0,30.11,NW,312,27.0,48.0,16,0.00,,,0.00,,2013-01-22 05:04:00,
2013-01-21 22:12:00,37.0,-5.0,30.11,NW,312,27.0,48.0,16,0.00,,,0.00,,2013-01-22 05:12:00,
2013-01-21 22:22:00,37.0,-5.0,30.11,WNW,297,24.0,40.0,16,0.00,,,0.00,,2013-01-22 05:22:00,
2013-01-21 22:32:00,37.0,-5.0,30.11,WNW,297,24.0,40.0,16,0.00,,,0.00,,2013-01-22 05:32:00,
2013-01-21 22:42:00,37.0,-5.0,30.11,WNW,290,20.0,41.0,16,0.00,,,0.00,,2013-01-22 05:42:00,
2013-01-21 22:52:00,37.0,-5.0,30.10,WNW,290,15.0,37.0,16,0.00,,,0.00,,2013-01-22 05:52:00,
2013-01-21 23:02:00,36.0,-6.0,30.11,NW,304,10.0,29.0,16,0.00,,,0.00,,2013-01-22 06:02:00,
2013-01-21 23:12:00,36.0,-6.0,30.11,NW,304,10.0,29.0,16,0.00,,,0.00,,2013-01-22 06:12:00,
2013-01-21 23:22:00,37.0,-6.0,30.10,WNW,285,18.0,35.0,15,0.00,,,0.00,,2013-01-22 06:22:00,
2013-01-21 23:32:00,37.0,-6.0,30.10,WNW,282,9.0,31.0,15,0.00,,,0.00,,2013-01-22 06:32:00,
2013-01-21 23:42:00,37.0,-6.0,30.10,WNW,282,9.0,31.0,15,0.00,,,0.00,,2013-01-22 06:42:00,
2013-01-21 23:52:00,37.0,-8.0,30.10,WNW,290,15.0,30.0,14,0.00,,,0.00,,2013-01-22 06:52:00,